7 * 24
多渠道服务支持
STARLINK-4776是美国SpaceX公司星链星座中的一颗低轨通信卫星,于2022年9月19日发射升空,属于星链一代组网卫星。该卫星运行在近地轨道,依托星链星座的规模化部署,为全球提供高速低延迟宽带互联网服务,重点覆盖地面网络难以抵达的偏远地区、海洋与空域,也可支持应急和商业通信,是星链实现全球覆盖战略的重要组成单元。
美国
(US)
| 数据来源 | 国际轨道数据 | AOE轨道数据 |
| 星历时间 | 2026-09-04T15:50:41+0800 13小时前 查看轨道信息 | 2026-09-02T23:00:00+0800 2天前 查看轨道信息 |
| 半长轴 | 6917.894km | 6917.876km |
| 偏心率 | 0.0000809 | 0.000064 |
| 轨道倾角 | 53.160° | 53.160° |
| 近地点辐角 | 79.567° | 70.668° |
| 升交点赤经 | 221.330° | 228.985° |
| 平近点角 | 280.541° | 40.178° |
| 近地点 | 539.197km | 539.296km |
| 远地点 | 540.317km | 540.182km |
| 周期 | 95.438分钟 | 95.437分钟 |
| 每日圈数 | 15.088358 | 15.088415 |
| 事件ID | 空间交会对象 | 最接近时刻(TCA) | 交会距离 | 交会风险概率(CRP) | 交会风险指数(CRI) | 操作 |
|---|---|---|---|---|---|---|
| CDM_260905-004105-383706-273122 |
STARLINK-4776
(53837)
OBJECT C
(62731) | 2026-09-05T 00:41:32+0000 |
2.631 km
极远距离 | 1.590658E-6 低风险 | 0.39 | |
| CDM_260830-222505-383706-538021 |
STARLINK-4776
(53837)
STARLINK-35051
(65380) | 2026-08-30T 22:25:34+0000 |
2.946 km
极远距离 | 1.303692E-6 低风险 | 0.37 |